[[{"header":{"parameterUnit":"m.s-1","parameterCategory":1,"la1":30.2991,"la2":30.254,"lo1":-89.0895,"lo2":-89.0444,"dy":0.0017,"dx":0.0017,"nx":28,"ny":28,"refTime":"2025-03-17T21:00:00:Z","depth":0,"parameterNumber":2,"parameterNumberName":"U-component_of_WINDS"},"data":[0,0,0,0,0,0,0,0,0,0,0,0,0,0,0,0,0,0,0,0,0,0,0,0,0,0,0,0,0,0,0,0,0,0,0,0,0,0,0,0,0,0,0,0,0,0,0,0,0,0,0,0,0,0,0,0,0,0,-0.7331,-0.7332,0,-0.7421,-0.7422,-0.7423,-0.7492,-0.7493,-0.7493,-0.7494,-0.7589,-0.7591,-0.7593,0,0,0,0,0,0,0,0,0,0,0,0,0,-0.7222,-0.7224,-0.7331,-0.7332,-0.7333,-0.7421,-0.7422,-0.7424,-0.7492,-0.7493,-0.7494,-0.7494,-0.7589,-0.7591,-0.7593,0,0,0,0,0,0,0,0,0,0,0,0,0,-0.7287,-0.7225,-0.7331,-0.7378,-0.7383,-0.7421,-0.7422,-0.7424,-0.7492,-0.7493,-0.7494,-0.7495,-0.7588,-0.7591,-0.7594,-0.7593,0,0,-0.7603,-0.7604,0,0,0,0,0,0,0,0,-0.7283,-0.7291,-0.737,-0.7375,-0.7381,-0.7446,-0.7419,-0.7481,-0.7492,-0.7451,-0.7494,-0.7495,-0.7541,-0.7548,-0.7563,-0.7597,-0.7601,-0.7603,-0.7605,-0.7606,-0.7607,0,0,0,0,0,0,0,-0.7278,-0.7287,-0.7367,-0.7371,-0.7378,-0.7396,-0.7406,-0.7431,-0.749,-0.7454,-0.746,-0.7469,-0.7544,-0.756,-0.7566,-0.7603,-0.7603,-0.7605,-0.7607,-0.7608,-0.7643,-0.7642,0,0,0,0,0,0,-0.7266,-0.7283,-0.7364,-0.737,-0.7333,-0.7397,-0.7409,-0.7424,-0.749,-0.75,-0.7468,-0.7472,-0.7555,-0.7562,-0.7569,-0.7574,-0.7606,-0.7609,-0.761,-0.7644,-0.7643,-0.7642,0,0,0,0,0,0,-0.7264,-0.7273,-0.7361,-0.7328,-0.734,-0.7398,-0.7415,-0.7426,-0.7441,-0.75,-0.7511,-0.7473,-0.7556,-0.7565,-0.7587,-0.7578,-0.761,-0.7613,-0.7645,-0.7643,-0.7642,-0.7582,0,0,0,0,0,0,-0.726,-0.7271,-0.7271,-0.7327,-0.7342,-0.7375,-0.7415,-0.7427,-0.7446,-0.7452,-0.7508,-0.7518,-0.7557,-0.7582,-0.759,-0.7583,-0.7615,-0.7646,-0.7644,-0.7643,-0.7585,-0.7579,-0.7573,0,0,0,0,0,-0.7256,-0.725,-0.727,-0.728,-0.7342,-0.7374,-0.7383,-0.7427,-0.7445,-0.7445,-0.7483,-0.7516,-0.7578,-0.7583,-0.7593,-0.7587,-0.7646,-0.7645,-0.7643,-0.7588,-0.758,-0.7574,0,0,0,0,0,0,-0.7192,-0.7259,-0.7281,-0.7294,-0.7328,-0.7386,-0.7388,-0.7417,-0.7448,-0.7452,-0.7507,-0.7519,-0.7535,-0.7563,-0.7568,-0.759,-0.7616,-0.7616,-0.7571,-0.7565,-0.7559,-0.7552,-0.7617,0,0,0,0,0,-0.7179,-0.7199,-0.7256,-0.7262,-0.7278,-0.7329,-0.7345,-0.7376,-0.7414,-0.7429,-0.7469,-0.7505,-0.7533,-0.755,-0.7579,-0.7589,-0.7603,-0.759,-0.7584,-0.7579,-0.7578,-0.7588,-0.7583,-0.7636,-0.7636,-0.7636,0,0,-0.7154,-0.7192,-0.7201,-0.725,-0.728,-0.73,-0.7341,-0.7361,-0.7377,-0.7433,-0.7455,-0.7486,-0.753,-0.7546,-0.7555,-0.757,-0.7567,-0.7576,-0.7572,-0.7575,-0.7585,-0.758,-0.7576,-0.7634,-0.7635,-0.7635,0,0,-0.7117,-0.7148,-0.7156,-0.7185,-0.723,-0.7265,-0.7266,-0.732,-0.7342,-0.7366,-0.7408,-0.7429,-0.7475,-0.7506,-0.7527,-0.7503,-0.7535,-0.751,-0.7481,-0.7489,-0.7485,-0.7482,-0.7474,-0.7471,-0.751,-0.7509,-0.7509,0,-0.708,-0.7111,-0.7157,-0.7174,-0.7195,-0.7245,-0.7256,-0.7282,-0.7334,-0.7348,-0.7363,-0.7423,-0.7457,-0.7481,-0.7475,-0.749,-0.7496,-0.7505,-0.7481,-0.7479,-0.7476,-0.747,-0.7467,-0.7506,-0.7507,-0.7507,-0.7507,0,-0.7064,-0.7085,-0.7086,-0.7134,-0.7155,-0.7169,-0.7218,-0.7234,-0.7264,-0.7297,-0.7321,-0.7363,-0.7402,-0.741,-0.7439,-0.7439,-0.7447,-0.7471,-0.7499,-0.7467,-0.7462,-0.746,-0.7502,-0.7503,-0.7504,-0.7505,0,0,-0.699,-0.7063,-0.7063,-0.7086,-0.7139,-0.7157,-0.7174,-0.7211,-0.7224,-0.7258,-0.7275,-0.7313,-0.7336,-0.736,-0.7393,-0.74,-0.738,-0.7424,-0.7426,-0.7416,-0.7385,-0.7367,-0.7363,-0.7401,-0.7401,-0.7401,-0.7381,0,-0.6963,-0.6994,-0.7036,-0.7053,-0.7074,-0.7123,-0.7137,-0.7172,-0.7204,-0.7228,-0.7263,-0.729,-0.7318,-0.7333,-0.7342,-0.738,-0.7375,-0.7382,-0.7418,-0.7419,-0.7407,-0.736,-0.7341,-0.7321,-0.738,-0.7379,-0.7379,0,-0.6935,-0.6966,-0.6985,-0.7038,-0.7048,-0.706,-0.7098,-0.7119,-0.7161,-0.7184,-0.7211,-0.7246,-0.7268,-0.7292,-0.7323,-0.7327,-0.7345,-0.7366,-0.7366,-0.7372,-0.7398,-0.7366,-0.7316,-0.7313,-0.7376,-0.7376,-0.7377,0,-0.6881,-0.6928,-0.6946,-0.6964,-0.7025,-0.7032,-0.7059,-0.7101,-0.712,-0.7154,-0.7168,-0.7203,-0.7223,-0.7251,-0.7296,-0.7309,-0.7323,-0.735,-0.7344,-0.7343,-0.7345,-0.7345,-0.7298,-0.7354,-0.7354,-0.7354,-0.7354,0,-0.6848,-0.6858,-0.6922,-0.6933,-0.6947,-0.6996,-0.7008,-0.7039,-0.7076,-0.7095,-0.7139,-0.7156,-0.7214,-0.7239,-0.7274,-0.7296,-0.7304,-0.7324,-0.7334,-0.7321,-0.7319,-0.7334,-0.7337,-0.7353,-0.7354,-0.7354,-0.7354,0,-0.679,-0.6833,-0.6856,-0.6912,-0.6926,-0.6934,-0.6983,-0.6996,-0.703,-0.7054,-0.7062,-0.7116,-0.7148,-0.7195,-0.7241,-0.7265,-0.7281,-0.7295,-0.7266,-0.7272,-0.7264,-0.7264,-0.7226,-0.7224,-0.728,-0.7279,-0.7279,0,-0.6766,-0.6775,-0.6832,-0.6847,-0.6871,-0.6895,-0.6916,-0.6964,-0.6984,-0.7032,-0.704,-0.7074,-0.7105,-0.7152,-0.7197,-0.7232,-0.7249,-0.7233,-0.7255,-0.7242,-0.7251,-0.725,-0.7252,-0.7229,-0.7228,-0.7227,-0.7226,0,-0.672,-0.6741,-0.6768,-0.6802,-0.6825,-0.6855,-0.6887,-0.6897,-0.6954,-0.6974,-0.7005,-0.7029,-0.7075,-0.7109,-0.7151,-0.718,-0.7213,-0.7219,-0.722,-0.7207,-0.7191,-0.7201,-0.7254,-0.722,-0.7221,-0.7221,-0.7222,-0.7222,-0.668,-0.669,-0.6732,-0.676,-0.6789,-0.6819,-0.6834,-0.687,-0.6897,-0.6938,-0.6965,-0.6996,-0.7038,-0.7097,-0.7124,-0.715,-0.7164,-0.7165,-0.7165,-0.7165,-0.7161,-0.7185,-0.7158,-0.7158,-0.7158,-0.7159,-0.7159,0,-0.6637,-0.6666,-0.6691,-0.6735,-0.6758,-0.6785,-0.6823,-0.684,-0.6866,-0.6902,-0.6931,-0.6968,-0.7002,-0.7049,-0.7086,-0.7098,-0.7114,-0.7106,-0.7107,-0.7113,-0.7146,-0.7142,-0.7092,-0.7092,-0.7092,-0.7092,-0.7092,-0.7092,-0.6617,-0.6637,-0.6663,-0.6698,-0.6728,-0.6757,-0.6776,-0.6804,-0.6833,-0.6872,-0.69,-0.6929,-0.697,-0.7011,-0.7044,-0.7057,-0.7069,-0.7057,-0.7075,-0.7104,-0.7111,-0.7116,-0.7113,-0.7059,-0.7059,-0.704,-0.704,-0.704]},{"header":{"parameterUnit":"m.s-1","parameterCategory":1,"la1":30.2991,"la2":30.254,"lo1":-89.0895,"lo2":-89.0444,"dy":0.0017,"dx":0.0017,"nx":28,"ny":28,"refTime":"2025-03-17T21:00:00:Z","depth":0,"parameterNumber":3,"parameterNumberName":"V-component_of_WINDS"},"data":[0,0,0,0,0,0,0,0,0,0,0,0,0,0,0,0,0,0,0,0,0,0,0,0,0,0,0,0,0,0,0,0,0,0,0,0,0,0,0,0,0,0,0,0,0,0,0,0,0,0,0,0,0,0,0,0,0,0,0.9731,0.9732,0,0.9839,0.984,0.9841,0.9877,0.9876,0.9876,0.9875,0.9984,0.9988,0.9991,0,0,0,0,0,0,0,0,0,0,0,0,0,0.9555,0.9558,0.9731,0.9732,0.9734,0.9839,0.984,0.9841,0.9877,0.9876,0.9876,0.9875,0.9983,0.9987,0.9991,0,0,0,0,0,0,0,0,0,0,0,0,0,0.9644,0.9559,0.9731,0.9764,0.9768,0.9838,0.984,0.9842,0.9877,0.9876,0.9875,0.9875,0.9982,0.9987,0.9992,1.0037,0,0,1.0007,1.0009,0,0,0,0,0,0,0,0,0.9638,0.965,0.9758,0.9762,0.9766,0.9844,0.9818,0.9907,0.9877,0.9835,0.9875,0.9874,0.9938,0.9947,0.9968,1.0042,1.0046,1.0007,1.0011,1.0013,1.0014,0,0,0,0,0,0,0,0.9632,0.9646,0.9774,0.9759,0.9765,0.9773,0.9785,0.9835,0.9889,0.9839,0.9842,0.9854,0.994,0.9963,0.9971,1.0048,1.0007,1.0012,1.0015,1.0017,1.0162,1.0162,0,0,0,0,0,0,0.9621,0.964,0.977,0.9777,0.9699,0.9777,0.979,0.982,0.9889,0.9899,0.9855,0.9855,0.9955,0.9965,0.9975,1.0031,1.0013,1.0017,1.002,1.0161,1.0162,1.0163,0,0,0,0,0,0,0.9617,0.9632,0.9766,0.9709,0.9727,0.978,0.9813,0.9822,0.9845,0.9901,0.991,0.9868,0.9955,0.9968,1.0021,1.0035,1.002,1.0024,1.016,1.0161,1.0162,1.0144,0,0,0,0,0,0,0.9611,0.963,0.9648,0.971,0.973,0.981,0.9814,0.9825,0.9854,0.9856,0.9916,0.9925,0.9955,1.0013,1.0026,1.0042,1.0028,1.0159,1.016,1.0162,1.0144,1.0145,1.0145,0,0,0,0,0,0.9605,0.9639,0.9649,0.9665,0.9754,0.9811,0.9823,0.9857,0.9855,0.9873,0.9908,0.9924,1.0032,1.0018,1.0033,1.0051,1.0158,1.016,1.0162,1.0143,1.0144,1.0145,0,0,0,0,0,0,0.9579,0.9648,0.966,0.9715,0.9757,0.9817,0.9841,0.9857,0.9901,0.9901,0.9941,0.9954,1.0004,1.0033,1.0016,1.0097,1.0095,1.01,1.0076,1.0078,1.0079,1.0071,1.0032,0,0,0,0,0,0.9579,0.9621,0.9679,0.9721,0.9742,0.9788,0.9814,0.9837,0.9882,0.99,0.9939,0.9982,1.0025,1.0053,1.0097,1.0148,1.0161,1.0167,1.0168,1.0169,1.0172,1.02,1.0203,1.0169,1.0169,1.0169,0,0,0.9581,0.9624,0.9648,0.9717,0.9752,0.9793,0.9803,0.9846,0.9877,0.9906,0.9958,0.9988,1.0039,1.009,1.0115,1.0116,1.0184,1.0171,1.0171,1.0175,1.0203,1.0206,1.0209,1.017,1.017,1.017,0,0,0.9605,0.9642,0.9681,0.9716,0.9769,0.9799,0.9808,0.9866,0.9887,0.994,0.9962,0.9999,1.0074,1.0108,1.0135,1.017,1.0185,1.0183,1.0188,1.0215,1.0217,1.022,1.0232,1.0235,1.0187,1.0187,1.0187,0,0.9601,0.9664,0.9699,0.9741,0.9771,0.9799,0.9838,0.987,0.9934,0.9954,0.9954,1.0047,1.0083,1.0142,1.0151,1.0172,1.0183,1.0177,1.0214,1.0217,1.022,1.0232,1.0236,1.0186,1.0186,1.0186,1.0186,0,0.9655,0.9698,0.9724,0.9785,0.9817,0.9857,0.9898,0.9926,0.9945,0.9975,1.0027,1.0071,1.0123,1.0139,1.0159,1.0201,1.02,1.0206,1.0206,1.0222,1.0234,1.0238,1.0185,1.0185,1.0185,1.0186,0,0,0.9667,0.9746,0.9754,0.9782,0.9841,0.9875,0.9916,0.9967,0.999,1.0033,1.0068,1.0129,1.0135,1.0166,1.0189,1.0213,1.0237,1.0217,1.0218,1.0218,1.0285,1.0279,1.0284,1.0247,1.0248,1.0248,1.0281,0,0.9699,0.9773,0.9805,0.9865,0.9905,0.9931,0.9967,1.0007,1.0035,1.0072,1.0104,1.0146,1.0152,1.017,1.0195,1.0228,1.025,1.0227,1.0279,1.028,1.0265,1.029,1.0285,1.0313,1.0285,1.0286,1.0287,0,0.9746,0.9788,0.9852,0.9905,0.9923,0.9955,1.0003,1.0038,1.0084,1.0102,1.0136,1.0158,1.0201,1.0197,1.0256,1.0239,1.0262,1.0282,1.0283,1.029,1.0284,1.0297,1.0323,1.0327,1.0294,1.0294,1.0293,0,0.9747,0.982,0.9868,0.989,0.9954,0.9975,1.0002,1.0047,1.0075,1.0117,1.0135,1.0181,1.0207,1.0241,1.0275,1.0269,1.033,1.0329,1.0346,1.0346,1.0358,1.0357,1.0389,1.0373,1.0373,1.0373,1.0373,0,0.9779,0.9817,0.9869,0.9898,0.994,0.9976,1.0017,1.0046,1.0085,1.012,1.0145,1.0177,1.0219,1.0256,1.0282,1.0326,1.0338,1.0353,1.036,1.0351,1.0349,1.0367,1.0366,1.0374,1.0374,1.0374,1.0374,0,0.9788,0.9825,0.9878,0.9933,0.9947,0.9976,1.0023,1.0052,1.0081,1.0124,1.0136,1.0182,1.0226,1.0263,1.0321,1.0338,1.0384,1.0392,1.0369,1.0373,1.0387,1.0385,1.0431,1.0439,1.0418,1.0419,1.0419,0,0.9806,0.9836,0.9894,0.9918,0.9945,0.9985,1.0013,1.0049,1.0077,1.013,1.0152,1.0198,1.0237,1.0307,1.0345,1.0389,1.0397,1.041,1.0404,1.0394,1.0397,1.0395,1.0397,1.0411,1.0411,1.0411,1.0411,0,0.9834,0.985,0.989,0.9935,0.9968,1.0006,1.0044,1.0063,1.0106,1.0136,1.0182,1.0212,1.0271,1.0316,1.0364,1.0391,1.0408,1.0413,1.0419,1.041,1.0396,1.0403,1.037,1.0412,1.0412,1.0411,1.0411,1.0411,0.9848,0.9875,0.9919,0.9962,0.9994,1.0029,1.0058,1.009,1.0129,1.018,1.0198,1.0245,1.0288,1.0354,1.0381,1.0418,1.042,1.0429,1.0431,1.0433,1.0431,1.039,1.0427,1.0427,1.0427,1.0427,1.0427,0,0.9877,0.9906,0.9945,0.9997,1.0031,1.0043,1.0086,1.0113,1.0153,1.0192,1.0229,1.0281,1.0324,1.0365,1.041,1.0431,1.044,1.0442,1.044,1.0446,1.0427,1.0417,1.0434,1.0434,1.0434,1.0434,1.0434,1.0434,0.9895,0.9941,0.9962,1.0023,1.0052,1.0098,1.0121,1.0153,1.0184,1.024,1.0276,1.0302,1.0341,1.0389,1.0429,1.044,1.0455,1.0455,1.0467,1.0449,1.0448,1.0447,1.0437,1.0458,1.0458,1.0483,1.0484,1.0484]}]]